Tutti
Dhipirri Airport (Ramingining, NT) YDHI Meteo
There is no TAF data available at YDHI or any nearby airports.
There is no METAR data available at YDHI. Showing METAR data for YMGB (18 mi O).
Storico METAR MGT recente (nessun dato per YDHI)
| Date | Time (ACST) | Flight Rules | Wind Dir. | Speed | Type | Height AGL (ft) | Visibility | Temp (°C) | Temp (°F) | Dew Point (°C) | Dew Point (°F) | Rel. Humid. | Pressure | Density Altitude | Remarks |
|---|---|---|---|---|---|---|---|---|---|---|---|---|---|---|---|
| 05-mag | 00:30 | n/a | 140° | 3 kt | Missing | 24° | 75° | 24° | 75° | 100% | 1011 mb | 1.198 ft | |||
| 04-mag | 23:30 | n/a | 150° | 1 kt | Missing | 24° | 75° | 23° | 73° | 94% | 1012 mb | 1.169 ft | |||
| 04-mag | 22:30 | n/a | 170° | 1 kt | Missing | 25° | 77° | 24° | 75° | 94% | 1012 mb | 1.289 ft | |||
| 04-mag | 21:30 | n/a | Calm | Missing | 25° | 77° | 24° | 75° | 94% | 1012 mb | 1.289 ft | ||||
| 04-mag | 20:30 | n/a | Calm | Missing | 25° | 77° | 24° | 75° | 94% | 1012 mb | 1.289 ft | ||||
| 04-mag | 19:30 | n/a | 100° | 5 kt | Missing | 25° | 77° | 23° | 73° | 89% | 1012 mb | 1.289 ft | |||
| 04-mag | 18:30 | n/a | 170° | 12 kt | Missing | 26° | 78° | 23° | 73° | 84% | 1011 mb | 1.438 ft | |||
| 04-mag | 17:30 | n/a | 20° | 5 kt | Missing | 30° | 86° | 24° | 75° | 70% | 1010 mb | 1.948 ft | |||
| 04-mag | 16:30 | n/a | 360° | 6 kt | Missing | 31° | 87° | 24° | 75° | 66% | 1009 mb | 2.097 ft | |||
| 04-mag | 15:30 | n/a | 70° | 7 kt | Missing | 32° | 89° | 23° | 73° | 59% | 1009 mb | 2.217 ft | |||
| 04-mag | 14:30 | n/a | 70° | 7 kt | Missing | 32° | 89° | 24° | 75° | 63% | 1010 mb | 2.188 ft | |||
| 04-mag | 13:30 | n/a | 50° | 7 kt | Missing | 32° | 89° | 24° | 75° | 63% | 1010 mb | 2.188 ft | |||
| 04-mag | 12:30 | n/a | 100° | 7 kt | Missing | 32° | 89° | 23° | 73° | 59% | 1011 mb | 2.158 ft | |||
| 04-mag | 11:30 | n/a | 110° | 8 kt | Missing | 30° | 86° | 24° | 75° | 70% | 1012 mb | 1.889 ft | |||
| 04-mag | 10:30 | n/a | 120° | 8 kt | Missing | 31° | 87° | 24° | 75° | 66% | 1012 mb | 2.009 ft | |||
| 04-mag | 09:30 | n/a | 120° | 7 kt | Missing | 30° | 86° | 24° | 75° | 70% | 1012 mb | 1.889 ft | |||
| 04-mag | 08:30 | n/a | 130° | 7 kt | Missing | 28° | 82° | 24° | 75° | 79% | 1012 mb | 1.649 ft | |||
| 04-mag | 07:30 | n/a | 150° | 6 kt | Missing | 26° | 78° | 24° | 75° | 89% | 1011 mb | 1.438 ft | |||
| 04-mag | 06:30 | n/a | 120° | 3 kt | Missing | 25° | 77° | 24° | 75° | 94% | 1010 mb | 1.348 ft | |||
| 04-mag | 05:30 | n/a | 90° | 4 kt | Missing | 25° | 77° | 24° | 75° | 94% | 1010 mb | 1.348 ft | |||
| 04-mag | 04:30 | n/a | 150° | 4 kt | Missing | 25° | 77° | 24° | 75° | 94% | 1010 mb | 1.348 ft | |||
| 04-mag | 03:30 | n/a | 140° | 4 kt | Missing | 25° | 77° | 24° | 75° | 94% | 1010 mb | 1.348 ft | |||
| 04-mag | 02:30 | n/a | 120° | 2 kt | Missing | 25° | 77° | 24° | 75° | 94% | 1010 mb | 1.348 ft | |||
| 04-mag | 01:30 | n/a | 150° | 5 kt | Missing | 26° | 78° | 24° | 75° | 89% | 1011 mb | 1.438 ft |
Accedi
| Il tuo browser non è supportato. fai l'upgrade del tuo browser |
